Location: Ostrava
(49.8330°N, 18.2830°E)
Time: 19:58:12
(UTC+02:00)

Vanguard 2 Rocket - Visible Passes

Search period start: 20 October 2014 00:00
Search period end: 29 October 2014 23:00
Orbit: 554 x 3335 km, 32.9° (Epoch: 18 October)

Date Brightness Start Highest point End Pass type
(mag) Time Alt. Az. Time Alt. Az. Time Alt. Az.
20 Oct 9.1 05:40:51 10° SW 05:46:25 25° SSE 05:54:42 10° ESE visible
21 Oct 8.9 04:45:31 15° S 04:48:19 19° SSE 04:54:10 10° ESE visible
22 Oct 9.2 03:50:33 13° SSE 03:50:33 13° SSE 03:53:18 10° SE visible
22 Oct 9.0 05:57:01 10° SW 06:02:25 24° S 06:10:25 10° SE visible
23 Oct 8.7 05:01:30 16° SSW 05:04:15 20° SSE 05:10:14 10° ESE visible
24 Oct 9.0 04:06:33 15° SSE 04:06:33 15° SSE 04:10:02 10° SE visible
24 Oct 9.0 06:13:29 10° SW 06:18:32 22° S 06:25:45 10° SE visible
25 Oct 8.7 05:17:29 14° SSW 05:20:19 19° S 05:25:56 10° SE visible
26 Oct 8.9 03:22:32 15° SSE 03:22:32 15° SSE 03:26:09 10° SE visible
26 Oct 9.1 05:30:23 10° SW 05:34:43 17° S 05:40:30 10° SSE visible
27 Oct 8.8 04:33:29 12° SSW 04:36:28 16° S 04:41:08 10° SE visible
28 Oct 8.8 03:38:32 14° S 03:38:32 14° S 03:41:45 10° SE visible
28 Oct 9.3 05:48:20 10° SSW 05:50:57 12° SSW 05:54:00 10° S visible
29 Oct 9.0 04:50:23 10° SSW 04:52:41 12° S 04:55:21 10° SSE visible
